Location: Newark
(25.4800°N, 85.7200°E)
Time: 19:40:28
(UTC+00:00)

Vanguard 1 Rocket - Pass Details

Date: 25 August 2019
Orbit: 650 x 4226 km, 34.3° (Epoch: 17 October)

Event Time Altitude Azimuth Distance (km) Brightness Sun altitude
Rises 01:58:34 0° 288° (WNW) 3,945 10.1 26.9°
Reaches altitude 10° 02:00:48 10° 283° (WNW) 3,259 9.8 27.4°
Maximum altitude 02:08:56 53° 208° (SSW) 2,249 9.6 29.3°
Drops below altitude 10° 02:24:47 10° 137° (SE) 6,069 12.3 32.8°
Sets 02:30:50 0° 134° (SE) 7,600 12.7 34.2°
